Change the Weather History Date:

Thursday, April 11, 2013

  Actual Average (KOTG) Record (KOTG)
Temperature  
Mean Temperature 30 °F -  
Max Temperature 32 °F 51 °F 82 °F (1977)
Min Temperature 28 °F 32 °F 12 °F (1989)
Degree Days  
Heating Degree Days 35    
Moisture  
Dew Point 31 °F    
Average Humidity 99    
Maximum Humidity 100    
Minimum Humidity 96    
Precipitation  
Precipitation 0.12 in - - ()
Sea Level Pressure  
Sea Level Pressure 29.68 in    
Wind  
Wind Speed 3 mph (NNE)    
Max Wind Speed 14 mph    
Max Gust Speed 22 mph    
Visibility 3 miles    
Events Rain , Snow    
Averages and records for this station are not official NWS values.
T = Trace of Precipitation, MM = Missing Value Source: NWS Daily Summary

Daily Weather History Graph

Daily Weather History Graph

Search for Another Location

Airport or City:

Trip Planner

Search our weather history database for the weather conditions in past years. The results will help you decide how hot, cold, wet, or windy it might be!

Date:

Astronomy

Apr. 11, 2013 Rise Set
Actual Time 6:46 AM CDT 8:02 PM CDT
Civil Twilight 6:16 AM CDT 8:32 PM CDT
Nautical Twilight 5:40 AM CDT 9:08 PM CDT
Astronomical Twilight 5:02 AM CDT 9:46 PM CDT
Moon 7:15 AM CDT (4/11) 9:42 PM CDT (4/11)
Length of Visible Light 14h 15m
Length of Day
13h 16m
New Moon, 2% of the Moon is Illuminated
Apr 11
New Moon
Apr 18
First Quarter
Apr 25
Full
May 2
Last Quarter
May 9
New

Hourly Weather History & Observations

Time (CDT) Temp. Windchill Dew Point Humidity Pressure Visibility Wind Dir Wind Speed Gust Speed Precip Events Conditions
12:15 AM 31.5 °F - 31.6 °F 100% 29.83 in 1.2 mi Calm Calm - 0.01 in Snow Light Snow
12:35 AM 31.5 °F - 31.6 °F 100% 29.83 in 1.2 mi Calm Calm - 0.03 in Snow Light Snow
12:55 AM 31.3 °F - 31.5 °F 100% 29.82 in 1.2 mi Calm Calm - 0.05 in Snow Light Snow
1:15 AM 31.1 °F - 31.5 °F 100% 29.81 in 1.5 mi Calm Calm - 0.01 in Snow Light Snow
1:35 AM 31.1 °F - 31.1 °F 100% 29.80 in 2.0 mi Calm Calm - 0.02 in Snow Light Snow
1:55 AM - - - N/A% 29.79 in 1.2 mi Calm Calm - 0.03 in   Unknown
2:15 AM 30.7 °F - 30.9 °F 100% 29.79 in 2.5 mi Calm Calm - N/A Snow Light Snow
2:35 AM 30.6 °F - 30.7 °F 100% 29.77 in 2.0 mi Calm Calm - 0.01 in Snow Light Snow
2:55 AM 30.6 °F - 30.6 °F 100% 29.76 in 1.8 mi Calm Calm - 0.01 in Snow Light Snow
3:15 AM 29.8 °F 26.3 °F 30.0 °F 100% 29.75 in 1.5 mi NNE 3.5 mph - 0.01 in Snow Light Snow
3:35 AM 28.9 °F 25.2 °F 29.1 °F 100% 29.75 in 1.0 mi NNE 3.5 mph - 0.01 in Snow Snow
3:55 AM 28.9 °F - 29.1 °F 100% 29.74 in 1.2 mi Calm Calm - 0.02 in Snow Light Snow
4:15 AM 28.8 °F - 28.9 °F 100% 29.72 in 1.0 mi Calm Calm - N/A Snow Snow
4:35 AM 28.8 °F 25.0 °F 28.9 °F 100% 29.71 in 1.0 mi NE 3.5 mph - N/A Snow Light Snow
4:55 AM 28.9 °F - 28.9 °F 100% 29.70 in 1.2 mi Calm Calm - 0.01 in Snow Light Snow
5:15 AM 28.9 °F - 29.1 °F 100% 29.67 in 1.0 mi Calm Calm - N/A Snow Snow
5:35 AM - - - N/A% 29.68 in 1.0 mi Calm Calm - N/A   Unknown
5:55 AM - - - N/A% 29.68 in 1.2 mi Calm Calm - N/A   Unknown
6:15 AM 28.9 °F - 29.1 °F 100% 29.67 in 1.8 mi Calm Calm - N/A Snow Light Snow
6:35 AM - - - N/A% 29.67 in 5.0 mi NE 3.5 mph - N/A   Unknown
6:55 AM 28.9 °F 25.2 °F 29.1 °F 100% 29.66 in 4.0 mi NE 3.5 mph - N/A Snow Light Snow
7:15 AM 28.9 °F 25.2 °F 29.1 °F 100% 29.65 in 5.0 mi NE 3.5 mph - N/A Snow Light Snow
7:35 AM 28.9 °F 25.2 °F 29.1 °F 100% 29.65 in 2.5 mi NE 3.5 mph - N/A Snow Light Snow
7:55 AM 28.9 °F 25.2 °F 29.1 °F 100% 29.66 in 3.0 mi NE 3.5 mph - N/A   Overcast
8:15 AM - - - N/A% 29.66 in 2.0 mi NE 3.5 mph - N/A   Unknown
8:35 AM - - - N/A% 29.66 in 3.0 mi Calm Calm - N/A   Unknown
8:55 AM 29.1 °F 25.4 °F 29.1 °F 100% 29.65 in 1.2 mi ENE 3.5 mph - N/A Snow Light Snow
9:14 AM 29.3 °F 25.6 °F 29.3 °F 100% 29.66 in 1.5 mi NE 3.5 mph - N/A Snow Light Snow
9:35 AM 29.5 °F - 29.5 °F 100% 29.66 in 1.0 mi Calm Calm - N/A Snow Light Snow
9:55 AM 29.8 °F - 29.5 °F 99% 29.66 in 1.0 mi Calm Calm - N/A Snow Light Snow
10:15 AM 30.2 °F - 30.0 °F 99% 29.66 in 1.0 mi Calm Calm - N/A Snow Light Snow
10:35 AM 30.6 °F - 30.0 °F 98% 29.67 in 1.0 mi Calm Calm - N/A Snow Light Snow
10:55 AM 30.7 °F - 30.2 °F 98% 29.67 in 0.8 mi Calm Calm - N/A Snow Light Snow
11:15 AM 31.1 °F - 30.2 °F 96% 29.67 in 1.0 mi Calm Calm - N/A Snow Light Snow
11:35 AM 31.1 °F - 30.4 °F 97% 29.67 in 1.0 mi Calm Calm - N/A Snow Light Snow
12:15 PM 31.6 °F 28.3 °F 30.7 °F 96% 29.66 in 1.0 mi NE 3.5 mph - N/A Snow Light Snow
12:35 PM 32.0 °F 28.7 °F 30.9 °F 96% 29.65 in 1.0 mi NE 3.5 mph - N/A Snow Light Snow
12:55 PM 32.0 °F - 30.9 °F 96% 29.64 in 1.5 mi Calm Calm - N/A Snow Light Snow
1:15 PM 32.0 °F - 31.1 °F 96% 29.64 in 4.0 mi Calm Calm - N/A   Overcast
1:35 PM 32.0 °F 24.8 °F 31.1 °F 96% 29.63 in 2.5 mi NE 8.1 mph - N/A Snow Light Snow
1:55 PM 32.0 °F 24.8 °F 31.1 °F 96% 29.63 in 5.0 mi NE 8.1 mph - N/A   Overcast
2:15 PM 32.0 °F 24.8 °F 31.1 °F 96% 29.63 in 5.0 mi NNE 8.1 mph - N/A   Overcast
2:36 PM 32.0 °F 24.8 °F 31.1 °F 96% 29.64 in 4.0 mi NNE 8.1 mph - N/A   Overcast
2:55 PM 32.0 °F 23.6 °F 31.3 °F 97% 29.64 in 2.5 mi NNE 10.4 mph - N/A Snow Light Snow
3:15 PM 32.2 °F 25.0 °F 31.6 °F 98% 29.64 in 1.8 mi NNE 8.1 mph - N/A Snow Light Snow
3:35 PM 32.2 °F 25.8 °F 31.8 °F 99% 29.63 in 1.8 mi NNE 6.9 mph - N/A Snow Light Snow
3:55 PM 32.7 °F 25.7 °F 32.0 °F 97% 29.64 in 3.0 mi NNE 8.1 mph - N/A Rain Light Rain
4:15 PM 32.5 °F 24.8 °F 32.0 °F 98% 29.64 in 4.0 mi NNE 9.2 mph - N/A   Overcast
4:35 PM 32.7 °F 23.9 °F 32.0 °F 97% 29.64 in 4.0 mi NNE 11.5 mph 16.1 mph N/A   Overcast
4:55 PM 32.5 °F 23.7 °F 32.0 °F 98% 29.64 in 4.0 mi NNE 11.5 mph 16.1 mph N/A   Overcast
5:16 PM 32.2 °F 23.2 °F 32.0 °F 99% 29.64 in 5.0 mi NNE 11.5 mph - N/A   Overcast
5:35 PM 32.0 °F 23.0 °F 32.0 °F 100% 29.65 in 4.0 mi NNE 11.5 mph 16.1 mph N/A   Overcast
5:55 PM 32.0 °F 23.0 °F 32.0 °F 100% 29.65 in 4.0 mi NNE 11.5 mph 17.3 mph N/A Snow Light Snow
6:15 PM 32.0 °F 23.0 °F 31.8 °F 99% 29.65 in 4.0 mi NNE 11.5 mph 16.1 mph N/A Snow Light Snow
6:35 PM 32.0 °F 23.0 °F 32.0 °F 100% 29.64 in 3.0 mi NE 11.5 mph 17.3 mph N/A Snow Light Snow
6:55 PM 31.8 °F 21.8 °F 31.8 °F 100% 29.64 in 4.0 mi NNE 13.8 mph 20.7 mph N/A Snow Light Snow
7:15 PM 31.6 °F 22.6 °F 31.8 °F 100% 29.64 in 5.0 mi NE 11.5 mph 21.9 mph N/A   Overcast
7:35 PM 31.5 °F 23.5 °F 31.6 °F 100% 29.64 in 5.0 mi NNE 9.2 mph 16.1 mph N/A   Overcast
7:54 PM 31.3 °F 22.1 °F 31.6 °F 100% 29.64 in 7.0 mi NNE 11.5 mph 17.3 mph N/A   Overcast
8:15 PM 31.1 °F 21.9 °F 31.5 °F 100% 29.65 in 7.0 mi NNE 11.5 mph 16.1 mph N/A   Overcast
8:35 PM 31.1 °F 22.4 °F 31.1 °F 100% 29.65 in 7.0 mi NNE 10.4 mph - N/A   Overcast
8:55 PM 31.1 °F 21.4 °F 31.3 °F 100% 29.66 in 7.0 mi NNE 12.7 mph 17.3 mph N/A   Overcast
9:15 PM 31.1 °F 23.1 °F 31.1 °F 100% 29.66 in 3.0 mi NNE 9.2 mph - N/A   Overcast
9:35 PM 31.1 °F 21.9 °F 31.1 °F 100% 29.67 in 1.8 mi North 11.5 mph - N/A Snow Light Snow
9:55 PM - - - N/A% 29.67 in 1.8 mi North 11.5 mph - N/A   Unknown
10:15 PM 30.7 °F 21.4 °F 30.9 °F 100% 29.68 in 3.0 mi North 11.5 mph - N/A Snow Light Snow
10:35 PM 30.4 °F 20.5 °F 30.6 °F 100% 29.68 in 2.5 mi North 12.7 mph 17.3 mph N/A Snow Light Snow
10:55 PM 30.2 °F 20.8 °F 30.4 °F 100% 29.69 in 4.0 mi North 11.5 mph 16.1 mph N/A Snow Light Snow
11:15 PM 30.2 °F 20.2 °F 30.2 °F 100% 29.69 in 4.0 mi North 12.7 mph - N/A Snow Light Snow
11:35 PM 30.0 °F 19.5 °F 30.2 °F 100% 29.69 in 4.0 mi North 13.8 mph - N/A Snow Light Snow
11:55 PM 29.3 °F 19.1 °F 29.7 °F 100% 29.69 in 3.0 mi North 12.7 mph - N/A Snow Light Snow